Tabellarische Ansicht des 9.3.2015


Die einzelnen Werte des Tages

Uhrzeit Temperatur Luftdruck Luftfeuchte Wind Hi-Wind Taupunkt THW Index Wind Chill Heat Index Solar- strahlung Regen

00:00

7.2 C

1020.7 hpa

70 %

0.0 km/h aus 117

3.2 km/h aus WNW

2.1 C

6.9 C

7.2 C

6.9 C

0 W/m

0.00 mm

00:05

6.9 C

1020.7 hpa

71 %

0.0 km/h aus 115

3.2 km/h aus WNW

2.0 C

6.7 C

6.9 C

6.7 C

0 W/m

0.00 mm

00:10

6.7 C

1020.7 hpa

71 %

1.6 km/h aus 117

3.2 km/h aus WNW

1.8 C

6.4 C

6.7 C

6.4 C

0 W/m

0.00 mm

00:15

6.4 C

1020.7 hpa

72 %

1.6 km/h aus 117

4.8 km/h aus WNW

1.8 C

6.2 C

6.4 C

6.2 C

0 W/m

0.00 mm

00:20

6.2 C

1020.7 hpa

72 %

0.0 km/h aus 117

0.0 km/h aus ---

1.5 C

5.9 C

6.2 C

5.9 C

0 W/m

0.00 mm

00:25

6.1 C

1020.7 hpa

73 %

0.0 km/h aus 117

1.6 km/h aus WNW

1.6 C

5.8 C

6.1 C

5.8 C

0 W/m

0.00 mm

00:30

5.9 C

1020.8 hpa

73 %

0.0 km/h aus 116

0.0 km/h aus ---

1.4 C

5.6 C

5.9 C

5.6 C

0 W/m

0.00 mm

00:35

5.7 C

1020.8 hpa

73 %

0.0 km/h aus 117

0.0 km/h aus ---

1.3 C

5.4 C

5.7 C

5.4 C

0 W/m

0.00 mm

00:40

5.6 C

1020.8 hpa

73 %

0.0 km/h aus 117

3.2 km/h aus WNW

1.1 C

5.3 C

5.6 C

5.3 C

0 W/m

0.00 mm

00:45

5.4 C

1021.1 hpa

73 %

0.0 km/h aus 117

0.0 km/h aus ---

1.0 C

5.2 C

5.4 C

5.2 C

0 W/m

0.00 mm

00:50

5.3 C

1021.1 hpa

73 %

0.0 km/h aus 117

0.0 km/h aus ---

0.8 C

5.0 C

5.3 C

5.0 C

0 W/m

0.00 mm

00:55

5.2 C

1021.1 hpa

74 %

0.0 km/h aus 117

0.0 km/h aus ---

0.9 C

4.9 C

5.2 C

4.9 C

0 W/m

0.00 mm

01:00

5.0 C

1021.1 hpa

78 %

0.0 km/h aus 117

0.0 km/h aus ---

1.5 C

4.8 C

5.0 C

4.8 C

0 W/m

0.00 mm

01:05

4.8 C

1021.1 hpa

74 %

0.0 km/h aus 117

3.2 km/h aus WNW

0.6 C

4.6 C

4.8 C

4.6 C

0 W/m

0.00 mm

01:10

4.7 C

1021.1 hpa

74 %

1.6 km/h aus 117

6.4 km/h aus WNW

0.5 C

4.4 C

4.7 C

4.4 C

0 W/m

0.00 mm

01:15

4.7 C

1021.3 hpa

74 %

3.2 km/h aus 117

8.0 km/h aus WNW

0.4 C

4.3 C

4.6 C

4.4 C

0 W/m

0.00 mm

01:20

4.6 C

1021.3 hpa

75 %

0.0 km/h aus 117

4.8 km/h aus WNW

0.6 C

4.3 C

4.6 C

4.3 C

0 W/m

0.00 mm

01:25

4.6 C

1021.3 hpa

75 %

3.2 km/h aus 117

9.7 km/h aus WNW

0.5 C

4.2 C

4.4 C

4.3 C

0 W/m

0.00 mm

01:30

4.6 C

1021.7 hpa

75 %

1.6 km/h aus 117

4.8 km/h aus WNW

0.5 C

4.3 C

4.6 C

4.3 C

0 W/m

0.00 mm

01:35

4.7 C

1021.7 hpa

75 %

0.0 km/h aus 117

6.4 km/h aus WNW

0.6 C

4.4 C

4.7 C

4.4 C

0 W/m

0.00 mm

01:40

4.8 C

1021.7 hpa

75 %

0.0 km/h aus 117

6.4 km/h aus WNW

0.8 C

4.6 C

4.8 C

4.6 C

0 W/m

0.00 mm

01:45

4.9 C

1021.6 hpa

75 %

0.0 km/h aus 116

1.6 km/h aus WNW

0.9 C

4.7 C

4.9 C

4.7 C

0 W/m

0.00 mm

01:50

5.1 C

1021.6 hpa

74 %

0.0 km/h aus 115

0.0 km/h aus ---

0.8 C

4.8 C

5.1 C

4.8 C

0 W/m

0.00 mm

01:55

5.2 C

1021.6 hpa

74 %

0.0 km/h aus 116

1.6 km/h aus WNW

0.9 C

4.9 C

5.2 C

4.9 C

0 W/m

0.00 mm

02:00

5.3 C

1021.8 hpa

74 %

1.6 km/h aus 117

4.8 km/h aus WNW

1.0 C

5.1 C

5.3 C

5.1 C

0 W/m

0.00 mm

02:05

5.4 C

1021.8 hpa

73 %

3.2 km/h aus 117

8.0 km/h aus WNW

0.9 C

5.1 C

5.4 C

5.1 C

0 W/m

0.00 mm

02:10

5.6 C

1021.8 hpa

73 %

3.2 km/h aus 117

8.0 km/h aus WNW

1.1 C

5.3 C

5.6 C

5.3 C

0 W/m

0.00 mm

02:15

5.8 C

1021.8 hpa

72 %

3.2 km/h aus 117

8.0 km/h aus WNW

1.1 C

5.5 C

5.8 C

5.5 C

0 W/m

0.00 mm

02:20

6.0 C

1021.8 hpa

72 %

1.6 km/h aus 116

6.4 km/h aus WNW

1.3 C

5.7 C

6.0 C

5.7 C

0 W/m

0.00 mm

02:25

6.2 C

1021.8 hpa

71 %

1.6 km/h aus 117

11.3 km/h aus WNW

1.3 C

5.8 C

6.2 C

5.8 C

0 W/m

0.00 mm

02:30

6.3 C

1021.7 hpa

71 %

3.2 km/h aus 117

6.4 km/h aus WNW

1.5 C

6.1 C

6.3 C

6.1 C

0 W/m

0.00 mm

02:35

6.5 C

1021.7 hpa

71 %

1.6 km/h aus 117

6.4 km/h aus WNW

1.6 C

6.2 C

6.5 C

6.2 C

0 W/m

0.00 mm

02:40

6.7 C

1021.7 hpa

70 %

1.6 km/h aus 115

8.0 km/h aus WNW

1.6 C

6.4 C

6.7 C

6.4 C

0 W/m

0.00 mm

02:45

6.8 C

1022.0 hpa

70 %

1.6 km/h aus 114

8.0 km/h aus WNW

1.7 C

6.5 C

6.8 C

6.5 C

0 W/m

0.00 mm

02:50

6.9 C

1022.0 hpa

70 %

4.8 km/h aus 117

11.3 km/h aus WNW

1.8 C

6.0 C

6.3 C

6.6 C

0 W/m

0.00 mm

02:55

7.0 C

1022.0 hpa

69 %

4.8 km/h aus 117

9.7 km/h aus W

1.7 C

6.2 C

6.4 C

6.7 C

0 W/m

0.00 mm

03:00

7.1 C

1022.2 hpa

69 %

3.2 km/h aus 117

6.4 km/h aus W

1.7 C

6.8 C

7.1 C

6.8 C

0 W/m

0.00 mm

03:05

7.2 C

1022.2 hpa

69 %

0.0 km/h aus 115

4.8 km/h aus W

1.9 C

6.9 C

7.2 C

6.9 C

0 W/m

0.00 mm

03:10

7.2 C

1022.2 hpa

69 %

3.2 km/h aus 117

6.4 km/h aus W

1.9 C

6.9 C

7.2 C

6.9 C

0 W/m

0.00 mm

03:15

7.2 C

1022.3 hpa

69 %

3.2 km/h aus 116

8.0 km/h aus W

1.9 C

6.9 C

7.2 C

6.9 C

0 W/m

0.00 mm

03:20

7.2 C

1022.3 hpa

69 %

1.6 km/h aus 116

6.4 km/h aus W

1.9 C

6.9 C

7.2 C

6.9 C

0 W/m

0.00 mm

03:25

7.3 C

1022.3 hpa

69 %

3.2 km/h aus 116

8.0 km/h aus W

2.0 C

7.0 C

7.3 C

7.0 C

0 W/m

0.00 mm

03:30

7.3 C

1022.3 hpa

69 %

4.8 km/h aus 117

8.0 km/h aus W

2.0 C

6.5 C

6.8 C

7.1 C

0 W/m

0.00 mm

03:35

7.4 C

1022.3 hpa

69 %

4.8 km/h aus 117

9.7 km/h aus W

2.1 C

6.6 C

6.9 C

7.1 C

0 W/m

0.00 mm

03:40

7.4 C

1022.3 hpa

69 %

4.8 km/h aus 115

9.7 km/h aus W

2.1 C

6.7 C

6.9 C

7.2 C

0 W/m

0.00 mm

03:45

7.4 C

1022.4 hpa

69 %

3.2 km/h aus 117

8.0 km/h aus W

2.1 C

7.2 C

7.4 C

7.2 C

0 W/m

0.00 mm

03:50

7.5 C

1022.4 hpa

69 %

3.2 km/h aus 116

8.0 km/h aus W

2.2 C

7.2 C

7.5 C

7.2 C

0 W/m

0.00 mm

03:55

7.5 C

1022.4 hpa

68 %

3.2 km/h aus 116

8.0 km/h aus W

2.0 C

7.2 C

7.5 C

7.2 C

0 W/m

0.00 mm

04:00

7.5 C

1022.4 hpa

68 %

4.8 km/h aus 117

8.0 km/h aus W

2.0 C

6.7 C

7.0 C

7.2 C

0 W/m

0.00 mm

04:05

7.5 C

1022.4 hpa

68 %

3.2 km/h aus 116

9.7 km/h aus W

2.0 C

7.2 C

7.5 C

7.2 C

0 W/m

0.00 mm

04:10

7.6 C

1022.4 hpa

68 %

4.8 km/h aus 118

9.7 km/h aus W

2.0 C

6.7 C

7.1 C

7.2 C

0 W/m

0.00 mm

04:15

7.6 C

1022.4 hpa

68 %

3.2 km/h aus 117

8.0 km/h aus W

2.0 C

7.2 C

7.6 C

7.2 C

0 W/m

0.00 mm

04:20

7.5 C

1022.4 hpa

68 %

3.2 km/h aus 117

8.0 km/h aus W

2.0 C

7.2 C

7.5 C

7.2 C

0 W/m

0.00 mm

04:25

7.5 C

1022.4 hpa

68 %

1.6 km/h aus 117

6.4 km/h aus W

2.0 C

7.2 C

7.5 C

7.2 C

0 W/m

0.00 mm

04:30

7.5 C

1022.6 hpa

68 %

1.6 km/h aus 115

6.4 km/h aus W

2.0 C

7.2 C

7.5 C

7.2 C

0 W/m

0.00 mm

04:35

7.5 C

1022.6 hpa

68 %

4.8 km/h aus 117

9.7 km/h aus W

2.0 C

6.7 C

7.0 C

7.2 C

0 W/m

0.00 mm

04:40

7.5 C

1022.6 hpa

68 %

4.8 km/h aus 116

8.0 km/h aus W

2.0 C

6.7 C

7.0 C

7.2 C

0 W/m

0.00 mm

04:45

7.5 C

1022.9 hpa

68 %

4.8 km/h aus 116

9.7 km/h aus W

2.0 C

6.7 C

7.0 C

7.2 C

0 W/m

0.00 mm

04:50

7.5 C

1022.9 hpa

68 %

1.6 km/h aus 117

6.4 km/h aus W

2.0 C

7.2 C

7.5 C

7.2 C

0 W/m

0.00 mm

04:55

7.5 C

1022.9 hpa

68 %

3.2 km/h aus 117

9.7 km/h aus W

2.0 C

7.2 C

7.5 C

7.2 C

0 W/m

0.00 mm

05:00

7.5 C

1023.2 hpa

68 %

3.2 km/h aus 117

8.0 km/h aus W

2.0 C

7.2 C

7.5 C

7.2 C

0 W/m

0.00 mm

05:05

7.5 C

1023.2 hpa

68 %

1.6 km/h aus 117

4.8 km/h aus W

2.0 C

7.2 C

7.5 C

7.2 C

0 W/m

0.00 mm

05:10

7.4 C

1023.2 hpa

68 %

4.8 km/h aus 117

8.0 km/h aus W

1.9 C

6.6 C

6.9 C

7.1 C

0 W/m

0.00 mm

05:15

7.4 C

1023.4 hpa

67 %

1.6 km/h aus 118

6.4 km/h aus W

1.7 C

7.1 C

7.4 C

7.1 C

0 W/m

0.00 mm

05:20

7.4 C

1023.4 hpa

67 %

1.6 km/h aus 116

6.4 km/h aus W

1.7 C

7.1 C

7.4 C

7.1 C

0 W/m

0.00 mm

05:25

7.4 C

1023.4 hpa

67 %

1.6 km/h aus 117

4.8 km/h aus W

1.7 C

7.1 C

7.4 C

7.1 C

0 W/m

0.00 mm

05:30

7.4 C

1023.4 hpa

67 %

1.6 km/h aus 117

4.8 km/h aus W

1.7 C

7.1 C

7.4 C

7.1 C

0 W/m

0.00 mm

05:35

7.4 C

1023.4 hpa

67 %

1.6 km/h aus 117

6.4 km/h aus W

1.7 C

7.1 C

7.4 C

7.1 C

0 W/m

0.00 mm

05:40

7.4 C

1023.4 hpa

67 %

1.6 km/h aus 117

4.8 km/h aus W

1.7 C

7.1 C

7.4 C

7.1 C

0 W/m

0.00 mm

05:45

7.4 C

1023.5 hpa

67 %

0.0 km/h aus 116

3.2 km/h aus W

1.7 C

7.1 C

7.4 C

7.1 C

0 W/m

0.00 mm

05:50

7.3 C

1023.5 hpa

67 %

0.0 km/h aus 117

3.2 km/h aus W

1.6 C

7.0 C

7.3 C

7.0 C

0 W/m

0.00 mm

05:55

7.3 C

1023.5 hpa

67 %

0.0 km/h aus 117

3.2 km/h aus W

1.6 C

7.0 C

7.3 C

7.0 C

0 W/m

0.00 mm

06:00

7.3 C

1023.7 hpa

67 %

1.6 km/h aus 117

6.4 km/h aus W

1.6 C

7.0 C

7.3 C

7.0 C

0 W/m

0.00 mm

06:05

7.3 C

1023.7 hpa

67 %

1.6 km/h aus 117

4.8 km/h aus W

1.6 C

7.0 C

7.3 C

7.0 C

0 W/m

0.00 mm

06:10

7.3 C

1023.7 hpa

67 %

1.6 km/h aus 116

6.4 km/h aus W

1.6 C

7.0 C

7.3 C

7.0 C

0 W/m

0.00 mm

06:15

7.3 C

1023.7 hpa

67 %

1.6 km/h aus 117

6.4 km/h aus W

1.6 C

6.9 C

7.3 C

6.9 C

0 W/m

0.00 mm

06:20

7.3 C

1023.7 hpa

67 %

3.2 km/h aus 118

6.4 km/h aus W

1.6 C

6.9 C

7.3 C

6.9 C

0 W/m

0.00 mm

06:25

7.3 C

1023.7 hpa

66 %

3.2 km/h aus 117

6.4 km/h aus W

1.3 C

6.9 C

7.3 C

6.9 C

0 W/m

0.00 mm

06:30

7.3 C

1023.9 hpa

66 %

3.2 km/h aus 116

6.4 km/h aus W

1.3 C

6.9 C

7.3 C

6.9 C

0 W/m

0.00 mm

06:35

7.2 C

1023.9 hpa

66 %

3.2 km/h aus 117

6.4 km/h aus W

1.3 C

6.8 C

7.2 C

6.8 C

0 W/m

0.00 mm

06:40

7.2 C

1023.9 hpa

66 %

3.2 km/h aus 116

8.0 km/h aus W

1.3 C

6.8 C

7.2 C

6.8 C

0 W/m

0.00 mm

06:45

7.2 C

1024.3 hpa

66 %

3.2 km/h aus 116

8.0 km/h aus W

1.3 C

6.8 C

7.2 C

6.8 C

0 W/m

0.00 mm

06:50

7.3 C

1024.3 hpa

66 %

1.6 km/h aus 117

6.4 km/h aus W

1.3 C

6.9 C

7.3 C

6.9 C

0 W/m

0.00 mm

06:55

7.3 C

1024.3 hpa

66 %

0.0 km/h aus 116

6.4 km/h aus W

1.3 C

6.9 C

7.3 C

6.9 C

3 W/m

0.00 mm

07:00

7.3 C

1024.4 hpa

66 %

3.2 km/h aus 116

8.0 km/h aus W

1.3 C

6.9 C

7.3 C

6.9 C

8 W/m

0.00 mm

07:05

7.3 C

1024.4 hpa

66 %

0.0 km/h aus 117

1.6 km/h aus W

1.3 C

6.9 C

7.3 C

6.9 C

13 W/m

0.00 mm

07:10

7.2 C

1024.4 hpa

66 %

0.0 km/h aus 117

4.8 km/h aus W

1.3 C

6.8 C

7.2 C

6.8 C

15 W/m

0.00 mm

07:15

7.2 C

1024.6 hpa

66 %

0.0 km/h aus 117

1.6 km/h aus W

1.3 C

6.8 C

7.2 C

6.8 C

13 W/m

0.00 mm

07:20

7.2 C

1024.6 hpa

66 %

1.6 km/h aus 116

4.8 km/h aus W

1.3 C

6.8 C

7.2 C

6.8 C

14 W/m

0.00 mm

07:25

7.2 C

1024.6 hpa

66 %

0.0 km/h aus 118

1.6 km/h aus W

1.3 C

6.8 C

7.2 C

6.8 C

30 W/m

0.00 mm

07:30

7.2 C

1024.8 hpa

65 %

0.0 km/h aus 117

1.6 km/h aus W

1.1 C

6.8 C

7.2 C

6.8 C

45 W/m

0.00 mm

07:35

7.2 C

1024.8 hpa

65 %

0.0 km/h aus 117

4.8 km/h aus W

1.1 C

6.8 C

7.2 C

6.8 C

49 W/m

0.00 mm

07:40

7.3 C

1024.8 hpa

65 %

0.0 km/h aus 116

4.8 km/h aus W

1.1 C

6.9 C

7.3 C

6.9 C

44 W/m

0.00 mm

07:45

7.3 C

1024.9 hpa

65 %

0.0 km/h aus 117

1.6 km/h aus W

1.2 C

6.9 C

7.3 C

6.9 C

40 W/m

0.00 mm

07:50

7.3 C

1024.9 hpa

64 %

0.0 km/h aus 117

1.6 km/h aus W

1.0 C

6.9 C

7.3 C

6.9 C

57 W/m

0.00 mm

07:55

7.4 C

1024.9 hpa

64 %

0.0 km/h aus 117

0.0 km/h aus ---

1.0 C

7.0 C

7.4 C

7.0 C

74 W/m

0.00 mm

08:00

7.4 C

1025.0 hpa

64 %

0.0 km/h aus 116

3.2 km/h aus W

1.1 C

7.1 C

7.4 C

7.1 C

71 W/m

0.00 mm

08:05

7.4 C

1025.0 hpa

64 %

1.6 km/h aus 117

4.8 km/h aus W

1.1 C

7.1 C

7.4 C

7.1 C

82 W/m

0.00 mm

08:10

7.6 C

1025.0 hpa

64 %

0.0 km/h aus 116

3.2 km/h aus W

1.2 C

7.2 C

7.6 C

7.2 C

89 W/m

0.00 mm

08:15

7.6 C

1025.3 hpa

64 %

0.0 km/h aus 117

1.6 km/h aus W

1.2 C

7.2 C

7.6 C

7.2 C

89 W/m

0.00 mm

08:20

7.7 C

1025.3 hpa

63 %

1.6 km/h aus 117

3.2 km/h aus W

1.1 C

7.3 C

7.7 C

7.3 C

94 W/m

0.00 mm

08:25

7.7 C

1025.3 hpa

63 %

0.0 km/h aus 117

4.8 km/h aus W

1.1 C

7.3 C

7.7 C

7.3 C

101 W/m

0.00 mm

08:30

7.8 C

1025.3 hpa

63 %

3.2 km/h aus 117

6.4 km/h aus W

1.2 C

7.4 C

7.8 C

7.4 C

116 W/m

0.00 mm

08:35

7.9 C

1025.3 hpa

63 %

0.0 km/h aus 117

4.8 km/h aus W

1.3 C

7.5 C

7.9 C

7.5 C

131 W/m

0.00 mm

08:40

7.9 C

1025.3 hpa

63 %

0.0 km/h aus 117

3.2 km/h aus W

1.3 C

7.6 C

7.9 C

7.6 C

141 W/m

0.00 mm

08:45

8.0 C

1025.2 hpa

63 %

1.6 km/h aus 115

6.4 km/h aus W

1.4 C

7.6 C

8.0 C

7.6 C

134 W/m

0.00 mm

08:50

8.0 C

1025.2 hpa

63 %

1.6 km/h aus 116

6.4 km/h aus W

1.4 C

7.6 C

8.0 C

7.6 C

130 W/m

0.00 mm

08:55

8.1 C

1025.2 hpa

63 %

3.2 km/h aus 117

8.0 km/h aus W

1.4 C

7.7 C

8.1 C

7.7 C

122 W/m

0.00 mm

09:00

8.1 C

1025.0 hpa

63 %

1.6 km/h aus 117

6.4 km/h aus W

1.4 C

7.7 C

8.1 C

7.7 C

111 W/m

0.00 mm

09:05

8.1 C

1025.0 hpa

64 %

0.0 km/h aus 117

1.6 km/h aus W

1.7 C

7.7 C

8.1 C

7.7 C

109 W/m

0.00 mm

09:10

8.1 C

1025.0 hpa

64 %

1.6 km/h aus 117

4.8 km/h aus W

1.7 C

7.7 C

8.1 C

7.7 C

137 W/m

0.00 mm

09:15

8.1 C

1024.9 hpa

64 %

1.6 km/h aus 117

6.4 km/h aus W

1.7 C

7.7 C

8.1 C

7.7 C

150 W/m

0.00 mm

09:20

8.1 C

1024.9 hpa

65 %

1.6 km/h aus 117

6.4 km/h aus W

1.9 C

7.7 C

8.1 C

7.7 C

176 W/m

0.00 mm

09:25

8.2 C

1024.9 hpa

66 %

1.6 km/h aus 117

6.4 km/h aus W

2.2 C

7.8 C

8.2 C

7.8 C

148 W/m

0.00 mm

09:30

8.4 C

1024.9 hpa

67 %

1.6 km/h aus 118

8.0 km/h aus WNW

2.7 C

8.1 C

8.4 C

8.1 C

176 W/m

0.00 mm

09:35

8.5 C

1024.9 hpa

68 %

1.6 km/h aus 117

6.4 km/h aus WNW

2.9 C

8.2 C

8.5 C

8.2 C

165 W/m

0.00 mm

09:40

8.3 C

1024.9 hpa

70 %

0.0 km/h aus 117

0.0 km/h aus ---

3.1 C

8.0 C

8.3 C

8.0 C

132 W/m

0.00 mm

09:45

8.3 C

1024.9 hpa

69 %

0.0 km/h aus 117

1.6 km/h aus WNW

3.0 C

8.1 C

8.3 C

8.1 C

138 W/m

0.00 mm

09:50

8.3 C

1024.9 hpa

69 %

0.0 km/h aus 116

4.8 km/h aus WNW

3.0 C

8.1 C

8.3 C

8.1 C

157 W/m

0.00 mm

09:55

8.5 C

1024.9 hpa

69 %

1.6 km/h aus 117

6.4 km/h aus WNW

3.1 C

8.2 C

8.5 C

8.2 C

196 W/m

0.00 mm

10:00

8.8 C

1024.8 hpa

69 %

1.6 km/h aus 116

4.8 km/h aus WNW

3.5 C

8.6 C

8.8 C

8.6 C

250 W/m

0.00 mm

10:05

9.2 C

1024.8 hpa

71 %

3.2 km/h aus 117

8.0 km/h aus WNW

4.2 C

8.9 C

9.2 C

8.9 C

229 W/m

0.00 mm

10:10

9.2 C

1024.8 hpa

72 %

3.2 km/h aus 117

6.4 km/h aus E

4.4 C

9.0 C

9.2 C

9.0 C

250 W/m

0.00 mm

10:15

9.3 C

1024.9 hpa

73 %

3.2 km/h aus 117

9.7 km/h aus E

4.7 C

9.2 C

9.3 C

9.2 C

187 W/m

0.00 mm

10:20

9.2 C

1024.9 hpa

73 %

3.2 km/h aus 117

6.4 km/h aus E

4.6 C

9.0 C

9.2 C

9.0 C

122 W/m

0.00 mm

10:25

9.1 C

1024.9 hpa

74 %

1.6 km/h aus 116

6.4 km/h aus E

4.7 C

8.9 C

9.1 C

8.9 C

131 W/m

0.00 mm

10:30

9.4 C

1024.7 hpa

73 %

1.6 km/h aus 117

8.0 km/h aus E

4.8 C

9.3 C

9.4 C

9.3 C

112 W/m

0.00 mm

10:35

9.4 C

1024.7 hpa

74 %

1.6 km/h aus 118

6.4 km/h aus E

5.0 C

9.2 C

9.4 C

9.2 C

143 W/m

0.00 mm

10:40

9.6 C

1024.7 hpa

74 %

1.6 km/h aus 116

9.7 km/h aus NNE

5.2 C

9.4 C

9.6 C

9.4 C

115 W/m

0.00 mm

10:45

10.1 C

1024.8 hpa

73 %

4.8 km/h aus 117

9.7 km/h aus SSE

5.4 C

9.7 C

9.9 C

9.9 C

95 W/m

0.00 mm

10:50

10.2 C

1024.8 hpa

74 %

4.8 km/h aus 117

9.7 km/h aus SSE

5.8 C

9.9 C

10.1 C

10.1 C

99 W/m

0.00 mm

10:55

10.1 C

1024.8 hpa

74 %

1.6 km/h aus 115

4.8 km/h aus SSE

5.7 C

9.9 C

10.1 C

9.9 C

135 W/m

0.00 mm

11:00

10.2 C

1024.8 hpa

74 %

3.2 km/h aus 116

6.4 km/h aus SSE

5.7 C

10.0 C

10.2 C

10.0 C

259 W/m

0.00 mm

11:05

10.1 C

1024.8 hpa

74 %

1.6 km/h aus 117

6.4 km/h aus SSE

5.6 C

9.9 C

10.1 C

9.9 C

449 W/m

0.00 mm

11:10

10.1 C

1024.8 hpa

74 %

4.8 km/h aus 117

8.0 km/h aus SE

5.6 C

9.7 C

9.9 C

9.9 C

410 W/m

0.00 mm

11:15

10.5 C

1024.6 hpa

74 %

1.6 km/h aus 117

8.0 km/h aus NE

6.1 C

10.3 C

10.5 C

10.3 C

492 W/m

0.00 mm

11:20

10.8 C

1024.6 hpa

74 %

1.6 km/h aus 117

8.0 km/h aus ENE

6.3 C

10.6 C

10.8 C

10.6 C

371 W/m

0.00 mm

11:25

10.7 C

1024.6 hpa

74 %

3.2 km/h aus 116

6.4 km/h aus ENE

6.2 C

10.4 C

10.7 C

10.4 C

458 W/m

0.00 mm

11:30

10.3 C

1024.7 hpa

74 %

1.6 km/h aus 117

6.4 km/h aus ENE

5.9 C

10.2 C

10.3 C

10.2 C

466 W/m

0.00 mm

11:35

10.8 C

1024.7 hpa

74 %

0.0 km/h aus 118

4.8 km/h aus ENE

6.4 C

10.6 C

10.8 C

10.6 C

503 W/m

0.00 mm

11:40

10.8 C

1024.7 hpa

74 %

0.0 km/h aus 116

4.8 km/h aus ENE

6.3 C

10.6 C

10.8 C

10.6 C

480 W/m

0.00 mm

11:45

11.0 C

1024.5 hpa

74 %

1.6 km/h aus 117

4.8 km/h aus ENE

6.5 C

10.8 C

11.0 C

10.8 C

480 W/m

0.00 mm

11:50

11.2 C

1024.5 hpa

74 %

3.2 km/h aus 116

9.7 km/h aus NNE

6.8 C

10.9 C

11.2 C

10.9 C

525 W/m

0.00 mm

11:55

11.3 C

1024.5 hpa

73 %

1.6 km/h aus 117

6.4 km/h aus NE

6.7 C

11.1 C

11.3 C

11.1 C

552 W/m

0.00 mm

12:00

11.6 C

1024.3 hpa

73 %

1.6 km/h aus 117

8.0 km/h aus NE

6.9 C

11.3 C

11.6 C

11.3 C

535 W/m

0.00 mm

12:05

11.8 C

1024.3 hpa

72 %

1.6 km/h aus 117

6.4 km/h aus NE

6.9 C

11.4 C

11.8 C

11.4 C

567 W/m

0.00 mm

12:10

11.7 C

1024.3 hpa

72 %

0.0 km/h aus 116

4.8 km/h aus NE

6.8 C

11.4 C

11.7 C

11.4 C

572 W/m

0.00 mm

12:15

11.9 C

1024.2 hpa

71 %

1.6 km/h aus 111

6.4 km/h aus NE

6.8 C

11.5 C

11.9 C

11.5 C

480 W/m

0.00 mm

12:20

11.6 C

1024.2 hpa

72 %

1.6 km/h aus 109

6.4 km/h aus E

6.7 C

11.3 C

11.6 C

11.3 C

181 W/m

0.00 mm

12:25

11.5 C

1024.2 hpa

73 %

4.8 km/h aus 112

8.0 km/h aus SSE

6.8 C

11.2 C

11.5 C

11.2 C

167 W/m

0.00 mm

12:30

11.3 C

1024.2 hpa

73 %

0.0 km/h aus 114

1.6 km/h aus SSE

6.7 C

11.1 C

11.3 C

11.1 C

343 W/m

0.00 mm

12:35

11.2 C

1024.2 hpa

73 %

0.0 km/h aus 113

4.8 km/h aus SSE

6.5 C

10.9 C

11.2 C

10.9 C

483 W/m

0.00 mm

12:40

11.3 C

1024.2 hpa

73 %

0.0 km/h aus 114

4.8 km/h aus SSE

6.6 C

11.0 C

11.3 C

11.0 C

207 W/m

0.00 mm

12:45

11.2 C

1024.0 hpa

72 %

0.0 km/h aus 110

1.6 km/h aus SSE

6.4 C

10.9 C

11.2 C

10.9 C

186 W/m

0.00 mm

12:50

11.6 C

1024.0 hpa

73 %

0.0 km/h aus 110

0.0 km/h aus ---

6.9 C

11.3 C

11.6 C

11.3 C

369 W/m

0.00 mm

12:55

12.0 C

1024.0 hpa

71 %

1.6 km/h aus 108

6.4 km/h aus SE

6.9 C

11.6 C

12.0 C

11.6 C

432 W/m

0.00 mm

13:00

12.0 C

1024.1 hpa

71 %

0.0 km/h aus 115

3.2 km/h aus ESE

6.9 C

11.6 C

12.0 C

11.6 C

211 W/m

0.00 mm

13:05

12.1 C

1024.1 hpa

71 %

3.2 km/h aus 112

8.0 km/h aus ESE

7.0 C

11.7 C

12.1 C

11.7 C

612 W/m

0.00 mm

13:10

12.2 C

1024.1 hpa

70 %

1.6 km/h aus 114

6.4 km/h aus ESE

6.9 C

11.8 C

12.2 C

11.8 C

640 W/m

0.00 mm

13:15

12.0 C

1024.0 hpa

71 %

0.0 km/h aus 111

1.6 km/h aus ESE

6.9 C

11.6 C

12.0 C

11.6 C

383 W/m

0.00 mm

13:20

12.6 C

1024.0 hpa

69 %

3.2 km/h aus 113

8.0 km/h aus ESE

7.0 C

12.1 C

12.6 C

12.1 C

590 W/m

0.00 mm

13:25

12.4 C

1024.0 hpa

69 %

0.0 km/h aus 114

4.8 km/h aus ESE

6.9 C

12.0 C

12.4 C

12.0 C

454 W/m

0.00 mm

13:30

12.8 C

1023.8 hpa

70 %

0.0 km/h aus 113

4.8 km/h aus ESE

7.4 C

12.3 C

12.8 C

12.3 C

454 W/m

0.00 mm

13:35

13.1 C

1023.8 hpa

70 %

3.2 km/h aus 116

11.3 km/h aus NNE

7.7 C

12.6 C

13.1 C

12.6 C

477 W/m

0.00 mm

13:40

12.8 C

1023.8 hpa

70 %

6.4 km/h aus 108

16.1 km/h aus NNW

7.5 C

12.2 C

12.6 C

12.4 C

504 W/m

0.00 mm

13:45

12.8 C

1023.8 hpa

70 %

4.8 km/h aus 110

14.5 km/h aus N

7.5 C

12.4 C

12.8 C

12.4 C

492 W/m

0.00 mm

13:50

13.2 C

1023.8 hpa

70 %

3.2 km/h aus 110

8.0 km/h aus N

7.8 C

12.7 C

13.2 C

12.7 C

510 W/m

0.00 mm

13:55

13.2 C

1023.8 hpa

69 %

3.2 km/h aus 111

11.3 km/h aus N

7.6 C

12.7 C

13.2 C

12.7 C

510 W/m

0.00 mm

14:00

13.1 C

1023.8 hpa

69 %

4.8 km/h aus 114

11.3 km/h aus N

7.5 C

12.7 C

13.1 C

12.7 C

505 W/m

0.00 mm

14:05

13.2 C

1023.8 hpa

69 %

4.8 km/h aus 110

9.7 km/h aus N

7.6 C

12.7 C

13.2 C

12.7 C

510 W/m

0.00 mm

14:10

13.4 C

1023.8 hpa

69 %

3.2 km/h aus 111

8.0 km/h aus N

7.8 C

12.9 C

13.4 C

12.9 C

529 W/m

0.00 mm

14:15

13.6 C

1023.7 hpa

67 %

4.8 km/h aus 113

16.1 km/h aus N

7.6 C

13.1 C

13.6 C

13.1 C

515 W/m

0.00 mm

14:20

12.9 C

1023.7 hpa

68 %

3.2 km/h aus 114

6.4 km/h aus NNW

7.2 C

12.4 C

12.9 C

12.4 C

316 W/m

0.00 mm

14:25

12.8 C

1023.7 hpa

69 %

1.6 km/h aus 111

6.4 km/h aus N

7.3 C

12.4 C

12.8 C

12.4 C

510 W/m

0.00 mm

14:30

12.5 C

1023.4 hpa

68 %

1.6 km/h aus 110

6.4 km/h aus N

6.8 C

12.1 C

12.5 C

12.1 C

222 W/m

0.00 mm

14:35

12.4 C

1023.4 hpa

70 %

1.6 km/h aus 106

4.8 km/h aus N

7.1 C

12.1 C

12.4 C

12.1 C

182 W/m

0.00 mm

14:40

12.6 C

1023.4 hpa

70 %

1.6 km/h aus 105

6.4 km/h aus N

7.2 C

12.1 C

12.6 C

12.1 C

227 W/m

0.00 mm

14:45

12.5 C

1023.2 hpa

70 %

3.2 km/h aus 107

9.7 km/h aus NNE

7.2 C

12.1 C

12.5 C

12.1 C

193 W/m

0.00 mm

14:50

12.5 C

1023.2 hpa

71 %

3.2 km/h aus 101

14.5 km/h aus N

7.4 C

12.1 C

12.5 C

12.1 C

265 W/m

0.00 mm

14:55

12.4 C

1023.2 hpa

72 %

6.4 km/h aus 111

16.1 km/h aus N

7.5 C

11.8 C

12.1 C

12.1 C

191 W/m

0.00 mm

15:00

12.3 C

1023.3 hpa

72 %

4.8 km/h aus 107

17.7 km/h aus NNW

7.4 C

11.9 C

12.3 C

11.9 C

217 W/m

0.00 mm

15:05

12.6 C

1023.3 hpa

72 %

4.8 km/h aus 104

12.9 km/h aus NNW

7.6 C

12.2 C

12.6 C

12.2 C

230 W/m

0.00 mm

15:10

12.3 C

1023.3 hpa

72 %

6.4 km/h aus 110

14.5 km/h aus NNW

7.4 C

11.7 C

12.1 C

12.0 C

206 W/m

0.00 mm

15:15

12.3 C

1023.3 hpa

72 %

8.0 km/h aus 112

16.1 km/h aus NNW

7.4 C

11.4 C

11.7 C

12.0 C

208 W/m

0.00 mm

15:20

12.3 C

1023.3 hpa

72 %

8.0 km/h aus 105

11.3 km/h aus NNW

7.4 C

11.4 C

11.7 C

12.0 C

236 W/m

0.00 mm

15:25

12.3 C

1023.3 hpa

72 %

6.4 km/h aus 113

14.5 km/h aus NNW

7.4 C

11.7 C

12.1 C

12.0 C

211 W/m

0.00 mm

15:30

12.3 C

1023.3 hpa

71 %

3.2 km/h aus 112

9.7 km/h aus NNW

7.2 C

11.9 C

12.3 C

11.9 C

173 W/m

0.00 mm

15:35

12.3 C

1023.3 hpa

71 %

3.2 km/h aus 112

8.0 km/h aus NNW

7.2 C

11.9 C

12.3 C

11.9 C

156 W/m

0.00 mm

15:40

12.3 C

1023.3 hpa

71 %

3.2 km/h aus 114

8.0 km/h aus NNW

7.2 C

11.9 C

12.3 C

11.9 C

150 W/m

0.00 mm

15:45

12.3 C

1023.3 hpa

71 %

3.2 km/h aus 113

8.0 km/h aus NNW

7.2 C

11.9 C

12.3 C

11.9 C

153 W/m

0.00 mm

15:50

12.3 C

1023.3 hpa

72 %

1.6 km/h aus 108

6.4 km/h aus NNW

7.4 C

12.0 C

12.3 C

12.0 C

174 W/m

0.00 mm

15:55

12.4 C

1023.3 hpa

72 %

3.2 km/h aus 113

8.0 km/h aus NNW

7.5 C

12.1 C

12.4 C

12.1 C

208 W/m

0.00 mm

16:00

12.4 C

1023.1 hpa

72 %

3.2 km/h aus 110

8.0 km/h aus NNW

7.5 C

12.1 C

12.4 C

12.1 C

143 W/m

0.00 mm

16:05

12.3 C

1023.1 hpa

72 %

1.6 km/h aus 110

8.0 km/h aus NNW

7.4 C

11.9 C

12.3 C

11.9 C

135 W/m

0.00 mm

16:10

12.2 C

1023.1 hpa

72 %

1.6 km/h aus 99

6.4 km/h aus NNW

7.3 C

11.8 C

12.2 C

11.8 C

135 W/m

0.00 mm

16:15

12.4 C

1023.2 hpa

72 %

0.0 km/h aus 107

1.6 km/h aus NNW

7.5 C

12.1 C

12.4 C

12.1 C

199 W/m

0.00 mm

16:20

12.3 C

1023.2 hpa

71 %

0.0 km/h aus 101

4.8 km/h aus NNW

7.2 C

11.9 C

12.3 C

11.9 C

141 W/m

0.00 mm

16:25

12.4 C

1023.2 hpa

71 %

1.6 km/h aus 106

6.4 km/h aus NNW

7.3 C

12.1 C

12.4 C

12.1 C

209 W/m

0.00 mm

16:30

12.7 C

1023.2 hpa

71 %

1.6 km/h aus 100

6.4 km/h aus NNW

7.6 C

12.3 C

12.7 C

12.3 C

220 W/m

0.00 mm

16:35

12.7 C

1023.2 hpa

71 %

1.6 km/h aus 109

6.4 km/h aus NNW

7.5 C

12.3 C

12.7 C

12.3 C

175 W/m

0.00 mm

16:40

12.5 C

1023.2 hpa

71 %

1.6 km/h aus 105

8.0 km/h aus NNW

7.4 C

12.1 C

12.5 C

12.1 C

100 W/m

0.00 mm

16:45

12.3 C

1022.8 hpa

71 %

0.0 km/h aus 109

4.8 km/h aus NNW

7.2 C

11.9 C

12.3 C

11.9 C

62 W/m

0.00 mm

16:50

12.1 C

1022.8 hpa

72 %

1.6 km/h aus 111

4.8 km/h aus NNW

7.2 C

11.8 C

12.1 C

11.8 C

76 W/m

0.00 mm

16:55

12.1 C

1022.8 hpa

72 %

3.2 km/h aus 112

8.0 km/h aus NNW

7.2 C

11.8 C

12.1 C

11.8 C

90 W/m

0.00 mm

17:00

12.1 C

1022.8 hpa

72 %

1.6 km/h aus 115

6.4 km/h aus NNW

7.2 C

11.8 C

12.1 C

11.8 C

88 W/m

0.00 mm

17:05

12.1 C

1022.8 hpa

72 %

1.6 km/h aus 111

6.4 km/h aus NNW

7.2 C

11.7 C

12.1 C

11.7 C

74 W/m

0.00 mm

17:10

11.9 C

1022.8 hpa

72 %

0.0 km/h aus 116

4.8 km/h aus NNW

7.1 C

11.6 C

11.9 C

11.6 C

55 W/m

0.00 mm

17:15

11.8 C

1022.8 hpa

72 %

1.6 km/h aus 109

4.8 km/h aus NNW

6.9 C

11.4 C

11.8 C

11.4 C

42 W/m

0.00 mm

17:20

11.6 C

1022.8 hpa

72 %

1.6 km/h aus 114

8.0 km/h aus NNW

6.7 C

11.2 C

11.6 C

11.2 C

41 W/m

0.00 mm

17:25

11.6 C

1022.8 hpa

72 %

0.0 km/h aus 117

1.6 km/h aus NNW

6.7 C

11.2 C

11.6 C

11.2 C

41 W/m

0.00 mm

17:30

11.4 C

1022.6 hpa

73 %

1.6 km/h aus 109

6.4 km/h aus NNW

6.8 C

11.2 C

11.4 C

11.2 C

37 W/m

0.00 mm

17:35

11.4 C

1022.6 hpa

73 %

1.6 km/h aus 111

6.4 km/h aus NNW

6.7 C

11.1 C

11.4 C

11.1 C

33 W/m

0.00 mm

17:40

11.4 C

1022.6 hpa

73 %

1.6 km/h aus 112

6.4 km/h aus NNW

6.7 C

11.1 C

11.4 C

11.1 C

30 W/m

0.00 mm

17:45

11.3 C

1022.5 hpa

73 %

0.0 km/h aus 112

4.8 km/h aus NNW

6.7 C

11.1 C

11.3 C

11.1 C

27 W/m

0.00 mm

17:50

11.3 C

1022.5 hpa

73 %

0.0 km/h aus 114

4.8 km/h aus NNW

6.6 C

11.0 C

11.3 C

11.0 C

24 W/m

0.00 mm

17:55

11.2 C

1022.5 hpa

72 %

0.0 km/h aus 107

3.2 km/h aus NNW

6.4 C

10.9 C

11.2 C

10.9 C

19 W/m

0.00 mm

18:00

11.2 C

1022.6 hpa

72 %

1.6 km/h aus 114

6.4 km/h aus NNW

6.3 C

10.9 C

11.2 C

10.9 C

14 W/m

0.00 mm

18:05

11.1 C

1022.6 hpa

72 %

0.0 km/h aus 115

1.6 km/h aus NNW

6.2 C

10.8 C

11.1 C

10.8 C

12 W/m

0.00 mm

18:10

10.9 C

1022.6 hpa

72 %

0.0 km/h aus 116

0.0 km/h aus ---

6.1 C

10.7 C

10.9 C

10.7 C

9 W/m

0.00 mm

18:15

10.8 C

1022.7 hpa

72 %

0.0 km/h aus 114

4.8 km/h aus NNW

5.9 C

10.5 C

10.8 C

10.5 C

4 W/m

0.00 mm

18:20

10.6 C

1022.7 hpa

72 %

0.0 km/h aus 111

3.2 km/h aus NNW

5.7 C

10.3 C

10.6 C

10.3 C

0 W/m

0.00 mm

18:25

10.4 C

1022.7 hpa

72 %

0.0 km/h aus 115

0.0 km/h aus ---

5.6 C

10.2 C

10.4 C

10.2 C

0 W/m

0.00 mm

18:30

10.3 C

1022.8 hpa

72 %

0.0 km/h aus 117

0.0 km/h aus ---

5.4 C

10.1 C

10.3 C

10.1 C

0 W/m

0.00 mm

18:35

10.1 C

1022.8 hpa

72 %

0.0 km/h aus 111

0.0 km/h aus ---

5.2 C

9.9 C

10.1 C

9.9 C

0 W/m

0.00 mm

18:40

9.9 C

1022.8 hpa

73 %

0.0 km/h aus 115

0.0 km/h aus ---

5.3 C

9.7 C

9.9 C

9.7 C

0 W/m

0.00 mm

18:45

9.7 C

1022.8 hpa

72 %

0.0 km/h aus 116

0.0 km/h aus ---

4.9 C

9.5 C

9.7 C

9.5 C

0 W/m

0.00 mm

18:50

9.4 C

1022.8 hpa

73 %

0.0 km/h aus 114

0.0 km/h aus ---

4.8 C

9.3 C

9.4 C

9.3 C

0 W/m

0.00 mm

18:55

9.2 C

1022.8 hpa

73 %

0.0 km/h aus 116

0.0 km/h aus ---

4.6 C

8.9 C

9.2 C

8.9 C

0 W/m

0.00 mm

19:00

8.9 C

1022.8 hpa

73 %

0.0 km/h aus 117

1.6 km/h aus NNW

4.4 C

8.7 C

8.9 C

8.7 C

0 W/m

0.00 mm

19:05

8.6 C

1022.8 hpa

74 %

0.0 km/h aus 110

0.0 km/h aus ---

4.2 C

8.4 C

8.6 C

8.4 C

0 W/m

0.00 mm

19:10

8.4 C

1022.8 hpa

74 %

0.0 km/h aus 110

1.6 km/h aus NNW

4.0 C

8.2 C

8.4 C

8.2 C

0 W/m

0.00 mm

19:15

8.2 C

1022.8 hpa

74 %

0.0 km/h aus 112

0.0 km/h aus ---

3.9 C

8.0 C

8.2 C

8.0 C

0 W/m

0.00 mm

19:20

8.1 C

1022.8 hpa

74 %

0.0 km/h aus 116

3.2 km/h aus NNW

3.8 C

7.9 C

8.1 C

7.9 C

0 W/m

0.00 mm

19:25

8.0 C

1022.8 hpa

74 %

0.0 km/h aus 117

0.0 km/h aus ---

3.6 C

7.8 C

8.0 C

7.8 C

0 W/m

0.00 mm

19:30

7.9 C

1022.8 hpa

74 %

0.0 km/h aus 117

0.0 km/h aus ---

3.5 C

7.7 C

7.9 C

7.7 C

0 W/m

0.00 mm

19:35

7.8 C

1022.8 hpa

74 %

0.0 km/h aus 117

3.2 km/h aus NNW

3.4 C

7.6 C

7.8 C

7.6 C

0 W/m

0.00 mm

19:40

7.6 C

1022.8 hpa

75 %

0.0 km/h aus 116

0.0 km/h aus ---

3.5 C

7.4 C

7.6 C

7.4 C

0 W/m

0.00 mm

19:45

7.4 C

1022.4 hpa

75 %

3.2 km/h aus 117

6.4 km/h aus NNW

3.2 C

7.2 C

7.4 C

7.2 C

0 W/m

0.00 mm

19:50

7.2 C

1022.4 hpa

75 %

3.2 km/h aus 117

6.4 km/h aus NNW

3.1 C

7.0 C

7.2 C

7.0 C

0 W/m

0.00 mm

19:55

7.1 C

1022.4 hpa

75 %

0.0 km/h aus 116

0.0 km/h aus ---

3.0 C

6.9 C

7.1 C

6.9 C

0 W/m

0.00 mm

20:00

7.0 C

1022.7 hpa

75 %

0.0 km/h aus 117

0.0 km/h aus ---

2.9 C

6.8 C

7.0 C

6.8 C

0 W/m

0.00 mm

20:05

6.8 C

1022.7 hpa

75 %

0.0 km/h aus 117

1.6 km/h aus NNW

2.7 C

6.6 C

6.8 C

6.6 C

0 W/m

0.00 mm

20:10

6.7 C

1022.7 hpa

75 %

0.0 km/h aus 117

0.0 km/h aus ---

2.6 C

6.5 C

6.7 C

6.5 C

0 W/m

0.00 mm

20:15

6.6 C

1022.5 hpa

75 %

0.0 km/h aus 116

0.0 km/h aus ---

2.5 C

6.4 C

6.6 C

6.4 C

0 W/m

0.00 mm

20:20

6.5 C

1022.5 hpa

75 %

0.0 km/h aus 117

4.8 km/h aus NNW

2.4 C

6.3 C

6.5 C

6.3 C

0 W/m

0.00 mm

20:25

6.4 C

1022.5 hpa

75 %

3.2 km/h aus 117

6.4 km/h aus NNW

2.3 C

6.2 C

6.4 C

6.2 C

0 W/m

0.00 mm

20:30

6.3 C

1022.2 hpa

75 %

4.8 km/h aus 116

8.0 km/h aus N

2.2 C

5.4 C

5.6 C

6.1 C

0 W/m

0.00 mm

20:35

6.2 C

1022.2 hpa

75 %

4.8 km/h aus 116

8.0 km/h aus N

2.1 C

5.3 C

5.6 C

6.0 C

0 W/m

0.00 mm

20:40

6.1 C

1022.2 hpa

75 %

3.2 km/h aus 117

6.4 km/h aus N

2.0 C

5.9 C

6.1 C

5.9 C

0 W/m

0.00 mm

20:45

6.1 C

1021.8 hpa

75 %

3.2 km/h aus 117

6.4 km/h aus N

2.0 C

5.8 C

6.1 C

5.8 C

0 W/m

0.00 mm

20:50

5.9 C

1021.8 hpa

75 %

3.2 km/h aus 116

8.0 km/h aus N

1.8 C

5.7 C

5.9 C

5.7 C

0 W/m

0.00 mm

20:55

5.9 C

1021.8 hpa

75 %

3.2 km/h aus 116

6.4 km/h aus N

1.8 C

5.7 C

5.9 C

5.7 C

0 W/m

0.00 mm

21:00

5.9 C

1021.9 hpa

75 %

0.0 km/h aus 117

1.6 km/h aus NNE

1.8 C

5.7 C

5.9 C

5.7 C

0 W/m

0.00 mm

21:05

5.8 C

1021.9 hpa

75 %

1.6 km/h aus 116

4.8 km/h aus NNE

1.7 C

5.6 C

5.8 C

5.6 C

0 W/m

0.00 mm

21:10

5.8 C

1021.9 hpa

75 %

4.8 km/h aus 117

6.4 km/h aus N

1.7 C

4.8 C

5.1 C

5.6 C

0 W/m

0.00 mm

21:15

5.7 C

1021.7 hpa

75 %

3.2 km/h aus 116

6.4 km/h aus NNE

1.6 C

5.5 C

5.7 C

5.5 C

0 W/m

0.00 mm

21:20

5.7 C

1021.7 hpa

75 %

1.6 km/h aus 116

6.4 km/h aus NNE

1.6 C

5.4 C

5.7 C

5.4 C

0 W/m

0.00 mm

21:25

5.6 C

1021.7 hpa

74 %

0.0 km/h aus 117

6.4 km/h aus NNE

1.3 C

5.3 C

5.6 C

5.3 C

0 W/m

0.00 mm

21:30

5.5 C

1021.6 hpa

74 %

3.2 km/h aus 117

8.0 km/h aus NNE

1.2 C

5.3 C

5.5 C

5.3 C

0 W/m

0.00 mm

21:35

5.4 C

1021.6 hpa

74 %

1.6 km/h aus 117

8.0 km/h aus NNE

1.1 C

5.2 C

5.4 C

5.2 C

0 W/m

0.00 mm

21:40

5.3 C

1021.6 hpa

75 %

1.6 km/h aus 117

4.8 km/h aus NNE

1.3 C

5.1 C

5.3 C

5.1 C

0 W/m

0.00 mm

21:45

5.2 C

1021.4 hpa

75 %

0.0 km/h aus 116

4.8 km/h aus NNE

1.1 C

5.0 C

5.2 C

5.0 C

0 W/m

0.00 mm

21:50

5.2 C

1021.4 hpa

75 %

0.0 km/h aus 116

0.0 km/h aus ---

1.1 C

4.9 C

5.2 C

4.9 C

0 W/m

0.00 mm

21:55

5.1 C

1021.4 hpa

74 %

0.0 km/h aus 117

0.0 km/h aus ---

0.9 C

4.9 C

5.1 C

4.9 C

0 W/m

0.00 mm

22:00

5.1 C

1021.3 hpa

74 %

0.0 km/h aus 117

1.6 km/h aus NNE

0.8 C

4.8 C

5.1 C

4.8 C

0 W/m

0.00 mm

22:05

5.0 C

1021.3 hpa

74 %

0.0 km/h aus 118

3.2 km/h aus NNE

0.7 C

4.8 C

5.0 C

4.8 C

0 W/m

0.00 mm

22:10

4.9 C

1021.3 hpa

74 %

0.0 km/h aus 117

1.6 km/h aus NNE

0.7 C

4.7 C

4.9 C

4.7 C

0 W/m

0.00 mm

22:15

4.8 C

1021.3 hpa

74 %

0.0 km/h aus 117

1.6 km/h aus NNE

0.6 C

4.6 C

4.8 C

4.6 C

0 W/m

0.00 mm

22:20

4.8 C

1021.3 hpa

75 %

1.6 km/h aus 116

4.8 km/h aus NNE

0.7 C

4.6 C

4.8 C

4.6 C

0 W/m

0.00 mm

22:25

4.7 C

1021.3 hpa

74 %

3.2 km/h aus 116

4.8 km/h aus NNE

0.4 C

4.3 C

4.6 C

4.4 C

0 W/m

0.00 mm

22:30

4.6 C

1021.2 hpa

74 %

1.6 km/h aus 117

4.8 km/h aus NNE

0.3 C

4.3 C

4.6 C

4.3 C

0 W/m

0.00 mm

22:35

4.5 C

1021.2 hpa

74 %

3.2 km/h aus 117

4.8 km/h aus NNE

0.3 C

4.1 C

4.4 C

4.2 C

0 W/m

0.00 mm

22:40

4.5 C

1021.2 hpa

74 %

1.6 km/h aus 117

4.8 km/h aus NNE

0.3 C

4.2 C

4.5 C

4.2 C

0 W/m

0.00 mm

22:45

4.6 C

1021.2 hpa

73 %

0.0 km/h aus 116

1.6 km/h aus NNE

0.1 C

4.3 C

4.6 C

4.3 C

0 W/m

0.00 mm

22:50

4.7 C

1021.2 hpa

73 %

0.0 km/h aus 117

1.6 km/h aus NNE

0.2 C

4.4 C

4.7 C

4.4 C

0 W/m

0.00 mm

22:55

4.7 C

1021.2 hpa

73 %

0.0 km/h aus 117

0.0 km/h aus ---

0.3 C

4.4 C

4.7 C

4.4 C

0 W/m

0.00 mm

23:00

4.7 C

1021.2 hpa

73 %

0.0 km/h aus 116

1.6 km/h aus NNE

0.2 C

4.4 C

4.7 C

4.4 C

0 W/m

0.00 mm

23:05

4.7 C

1021.2 hpa

73 %

0.0 km/h aus 116

1.6 km/h aus NNE

0.2 C

4.4 C

4.7 C

4.4 C

0 W/m

0.00 mm

23:10

4.6 C

1021.2 hpa

73 %

0.0 km/h aus 117

0.0 km/h aus ---

0.1 C

4.3 C

4.6 C

4.3 C

0 W/m

0.00 mm

23:15

4.5 C

1021.0 hpa

73 %

0.0 km/h aus 117

3.2 km/h aus NNE

0.1 C

4.2 C

4.5 C

4.2 C

0 W/m

0.00 mm

23:20

4.4 C

1021.0 hpa

73 %

4.8 km/h aus 117

8.0 km/h aus NNE

0.0 C

3.3 C

3.6 C

4.2 C

0 W/m

0.00 mm

23:25

4.3 C

1021.0 hpa

73 %

6.4 km/h aus 117

11.3 km/h aus SSE

-0.1 C

2.6 C

2.8 C

4.1 C

0 W/m

0.00 mm

23:30

4.3 C

1021.1 hpa

72 %

9.7 km/h aus 116

14.5 km/h aus SSE

-0.3 C

1.6 C

1.9 C

4.0 C

0 W/m

0.00 mm

23:35

4.4 C

1021.1 hpa

71 %

9.7 km/h aus 116

12.9 km/h aus SSE

-0.4 C

1.8 C

2.1 C

4.1 C

0 W/m

0.00 mm

23:40

4.7 C

1021.1 hpa

70 %

9.7 km/h aus 117

16.1 km/h aus SSE

-0.3 C

2.1 C

2.4 C

4.4 C

0 W/m

0.00 mm

23:45

4.8 C

1021.3 hpa

70 %

6.4 km/h aus 117

11.3 km/h aus SSE

-0.2 C

3.1 C

3.4 C

4.5 C

0 W/m

0.00 mm

23:50

4.9 C

1021.3 hpa

69 %

4.8 km/h aus 117

9.7 km/h aus SSE

-0.3 C

3.8 C

4.1 C

4.6 C

0 W/m

0.00 mm

23:55

5.1 C

1021.3 hpa

69 %

1.6 km/h aus 115

6.4 km/h aus SSE

-0.2 C

4.7 C

5.1 C

4.7 C

0 W/m

0.00 mm